CAPE
46 31 34 42 35 17 7 0 33 25 51 34 18 0 0 0 6 0 0 2 23 5 0 0 0 0 3 0 0 1 0 0 0 2 0 0 0 0 0 0 0 0 0 0 1 0 0 0 0 0 0 0 0 0
50 46 69 17 8 39 17 1 4 27 39 38 30 0 0 0 1 0 0 0 0 0 0 0 0 0 0 0 0 0 0 0 0 0 0 0 0 0 0 0 0 0 0 0 0 0 0 0 0 0 0 0 0 0
59 88 39 0 19 11 19 1 10 41 51 51 32 0 0 0 0 1 0 0 2 0 0 0 0 0 0 0 0 0 0 0 0 0 0 0 0 0 0 0 0 0 0 0 0 0 0 0 0 0 0 0 0 0
64 37 53 33 12 10 5 1 32 46 42 59 23 0 0 0 0 0 0 0 0 0 0 0 0 0 0 0 0 0 0 0 0 0 0 0 0 0 0 0 0 0 0 0 0 0 0 0 0 0 0 0 0 0
12 9 6 13 13 6 10 4 41 40 46 62 15 2 0 0 0 0 0 0 0 1 0 1 0 0 0 0 2 1 0 0 0 0 0 0 0 0 0 0 0 0 0 0 0 0 0 0 0 0 0 0 0 0
19 7 1 1 5 4 4 11 40 39 45 50 22 23 2 0 0 0 0 0 0 1 0 0 0 0 0 1 1 0 0 0 0 1 0 0 0 0 0 0 0 0 0 0 0 0 0 0 0 0 0 0 0 0
2 0 0 0 2 1 4 18 31 32 65 57 25 16 2 0 0 0 0 1 1 1 0 1 0 0 0 0 0 0 0 0 0 1 0 1 0 0 0 2 0 0 0 0 0 0 0 0 0 0 0 0 0 0
2 2 2 1 4 0 8 44 0 0 15 24 25 19 4 0 0 0 0 0 1 4 0 0 0 0 0 0 0 0 0 0 0 0 0 0 0 0 0 0 0 0 0 0 0 0 0 0 0 0 0 0 0 0
5 9 2 58 82 2 6 106 69 7 11 14 18 5 0 0 0 0 0 2 0 0 0 0 0 0 0 0 0 0 0 0 0 0 0 0 0 0 0 0 0 0 0 0 0 0 0 0 0 0 0 0 0 0
7 2 0 10 1 9 71 45 11 7 3 5 0 0 0 0 0 0 0 0 0 0 0 0 0 0 0 0 0 0 0 1 0 0 0 0 0 0 0 0 0 0 0 0 0 0 0 0 0 0 0 0 0 0
3 3 4 12 10 19 40 7 4 10 0 0 0 0 0 0 0 0 0 0 0 0 0 0 1 0 0 0 0 0 0 0 0 0 0 0 0 0 0 0 0 0 0 0 0 0 0 0 0 0 0 0 0 0
0 4 32 24 27 25 13 10 2 0 0 0 0 0 0 0 1 0 0 0 1 1 0 0 0 0 0 0 1 0 0 0 1 0 1 0 0 0 0 2 13 5 1 0 0 0 0 0 0 0 0 0 0 0
4 0 4 7 15 11 11 0 0 0 0 0 0 0 0 0 0 0 2 0 0 0 0 1 0 3 0 0 3 1 2 0 1 1 0 0 0 0 1 4 4 0 0 0 0 0 0 0 0 0 0 0 0 0
2 8 0 3 18 24 20 10 0 0 0 0 0 0 0 0 0 0 0 0 0 0 0 2 2 2 0 0 0 0 0 0 0 0 0 0 0 0 3 0 0 1 0 0 0 0 0 0 0 0 0 0 0 0
0 0 15 4 0 3 40 18 0 0 0 0 0 0 0 0 0 0 0 0 0 0 0 9 5 1 0 1 4 6 0 0 0 0 0 0 0 0 0 0 0 0 0 0 0 0 0 0 0 0 0 0 0 0
0 0 0 2 18 19 19 4 0 0 0 0 0 0 0 0 0 0 0 0 0 0 0 0 0 3 2 0 0 1 0 0 0 0 0 0 0 0 0 0 0 0 0 0 0 0 0 0 0 0 0 0 0 0
6 0 0 27 25 18 5 0 0 0 0 0 0 0 0 0 0 0 0 0 0 0 0 0 0 0 0 0 0 0 0 0 0 0 0 0 0 0 0 0 0 0 0 0 0 0 0 0 0 0 0 0 0 0
0 0 18 29 0 0 0 0 0 0 0 0 0 0 0 0 0 0 0 0 0 0 0 0 0 0 0 0 0 0 0 0 0 0 0 0 0 0 0 0 0 0 0 0 0 0 0 0 0 0 0 0 0 0
1 0 1 7 0 0 0 0 0 0 0 0 0 0 0 0 0 0 0 0 0 0 0 0 0 0 0 0 0 0 0 0 0 0 0 0 0 0 0 0 0 0 0 0 0 0 0 0 0 0 0 0 0 0
2 2 2 0 3 0 0 0 0 0 0 0 0 0 0 0 0 0 0 0 0 0 0 0 0 0 0 0 0 0 0 0 0 0 0 0 0 0 0 0 0 0 0 0 0 0 0 0 0 0 0 0 0 0
0 0 1 0 0 0 0 0 0 0 0 0 0 0 0 0 0 0 0 0 0 0 0 0 0 0 0 0 0 0 0 0 0 0 0 0 0 0 0 0 0 0 0 0 0 0 0 0 0 0 0 0 0 0
0 0 0 0 0 0 0 0 0 0 0 0 0 0 0 0 0 0 0 0 0 0 0 0 0 0 0 0 0 0 0 0 0 0 0 0 0 0 0 0 0 0 0 0 0 0 0 0 0 0 0 0 0 0
0 0 0 0 0 0 0 0 0 0 0 0 0 0 0 0 0 0 0 0 0 0 0 0 0 0 0 0 0 0 0 0 0 0 0 0 0 0 0 0 0 0 0 0 0 0 0 0 0 0 0 0 0 0
0 0 0 0 0 0 0 0 0 0 0 0 0 0 0 0 0 0 0 0 0 0 0 0 0 0 0 0 0 0 0 0 0 0 0 0 0 0 0 0 0 0 0 0 0 0 0 0 0 0 0 0 0 0
0 0 0 0 0 0 0 0 0 0 0 0 0 0 0 0 0 0 0 0 0 0 0 0 0 0 0 0 0 0 0 0 0 0 0 0 0 0 0 0 0 0 0 0 0 0 0 0 0 0 0 0 0 0
0 0 0 0 0 0 0 0 0 0 0 0 0 0 0 0 0 0 0 0 0 0 0 0 0 0 0 0 0 0 0 0 0 0 0 0 0 0 0 0 0 0 0 0 0 0 0 0 0 0 0 0 0 0
0 0 0 0 0 0 0 0 0 0 0 0 0 0 0 0 0 0 0 0 0 0 0 0 0 0 0 0 0 0 0 0 0 0 0 0 0 0 0 0 0 0 0 0 0 0 0 0 0 0 0 0 0 0
0 0 0 0 0 0 0 0 0 0 0 0 0 0 0 0 0 0 0 0 0 0 0 0 0 0 0 0 0 0 0 0 0 0 0 0 0 0 0 0 0 0 0 0 0 0 0 0 0 0 0 0 0 0
0 0 0 0 0 0 0 0 0 0 0 0 0 0 0 0 0 0 0 0 0 0 0 0 0 0 0 0 0 0 0 0 0 0 0 0 0 0 0 0 0 0 0 0 0 0 0 0 0 0 0 0 0 0
0 0 0 0 0 0 0 0 0 0 0 0 0 0 0 0 0 0 0 0 0 0 0 0 0 0 0 0 0 0 0 0 0 0 0 0 0 0 0 0 0 0 0 0 0 0 0 0 0 0 0 0 0 0
0 0 0 0 0 0 0 0 0 0 0 0 0 0 0 0 0 0 0 0 0 0 0 0 0 0 0 0 0 0 0 0 0 0 0 0 0 0 0 0 0 0 0 0 0 0 0 0 0 0 0 0 0 0
0 0 0 0 0 0 0 0 0 0 0 0 0 0 0 0 0 0 0 0 0 0 0 0 0 0 0 0 0 0 0 0 0 0 0 0 0 0 0 0 0 0 0 0 0 0 0 0 0 0 0 0 0 0
0 0 0 0 0 0 0 0 0 0 0 0 0 0 0 0 0 0 0 0 0 0 0 0 0 0 0 0 0 0 0 0 0 0 0 0 0 0 0 0 0 0 0 0 0 0 0 0 0 0 0 0 0 0
CIN
-4 -4 -1 -1 -1 -2 -0 -0 -0 -0 -0 -1 -0 -0 -0 -0 -0 -0 -0 -2 -0 -0 -0 -0 -0 -0 -0 -0 -0 -0 -0 -0 -0 -4 -0 -0 -2 -0 -0 -0 -0 -0 -0 -0 -0 -0 -0 -0 -0 -0 -0 -0 -0 -0
-5 -1 -1 -9 -12 -0 -1 -0 -0 -0 -0 -1 -0 -0 -0 -0 -0 -0 -0 -1 -0 -0 -0 -0 -0 -0 -0 -0 -0 -0 -0 -0 -0 -0 -0 -0 -0 -0 -0 -0 -0 -0 -0 -0 -0 -0 -0 -0 -0 -0 -0 -0 -0 -0
-1 -0 -1 -0 -1 -1 -0 -0 -0 -0 -0 -0 -0 -0 -0 -0 -0 -0 -0 -0 -6 -0 -0 -0 -0 -0 -0 -0 -0 -0 -0 -0 -0 -0 -0 -0 -0 -0 -0 -0 -0 -0 -0 -0 -0 -0 -0 -0 -0 -0 -0 -0 -0 -0
-6 -6 -0 -1 -0 -0 -0 -0 -2 -1 -0 -0 -0 -0 -0 -0 -0 -0 -0 -0 -0 -0 -0 -0 -0 -0 -0 -0 -0 -0 -0 -0 -0 -0 -0 -0 -0 -0 -0 -0 -0 -0 -0 -0 -0 -0 -0 -0 -0 -0 -0 -0 -0 -0
-9 -5 -7 -9 -5 -2 -0 -0 -9 -2 -1 -2 -0 -1 -0 -0 -0 -0 -0 -0 -0 -0 -0 -0 -0 -0 -0 -10 -17 -17 -0 -0 -0 -0 -0 -0 -0 -0 -0 -0 -0 -0 -0 -0 -0 -0 -0 -0 -0 -0 -0 -0 -0 -0
-8 -0 -0 -0 -0 -1 -0 -0 -1 -3 -1 -0 -0 -0 -6 -0 -0 -0 -0 -0 -0 -0 -0 -0 -0 -0 -0 -0 -20 -0 -0 -0 -0 -0 -0 -0 -0 -0 -0 -0 -0 -0 -0 -0 -0 -0 -0 -0 -0 -0 -0 -0 -0 -0
-1 -0 -0 -0 -1 -1 -0 -3 -2 -1 -4 -0 -0 -0 -0 -0 -0 -0 -0 -0 -0 -0 -0 -6 -0 -0 -0 -0 -0 -0 -0 -0 -0 -0 -0 -0 -0 -0 -0 -0 -0 -0 -0 -0 -0 -0 -0 -0 -0 -0 -0 -0 -0 -0
-0 -0 -0 -0 -0 -0 -15 -15 -3 -0 -25 -0 -0 -0 -0 -0 -0 -0 -0 -0 -0 -0 -0 -0 -0 -0 -0 -0 -0 -0 -0 -0 -0 -0 -0 -0 -0 -0 -0 -0 -0 -0 -0 -0 -0 -0 -0 -0 -0 -0 -0 -0 -0 -0
-0 -94 -0 -22 -6 -0 -2 -0 -1 -0 -0 -0 -0 -0 -0 -0 -0 -0 -0 -0 -0 -0 -0 -0 -0 -0 -0 -0 -0 -0 -0 -0 -0 -0 -0 -0 -0 -0 -0 -0 -0 -0 -0 -0 -0 -0 -0 -0 -0 -0 -0 -0 -0 -0
-0 -0 -0 -5 -0 -1 -0 -0 -0 -0 -1 -1 -0 -0 -0 -0 -0 -0 -0 -0 -0 -0 -0 -0 -0 -0 -0 -0 -0 -0 -0 -6 -0 -0 -0 -0 -0 -0 -0 -0 -0 -0 -0 -0 -0 -0 -0 -0 -0 -0 -0 -0 -0 -0
-0 -0 -0 -0 -0 -0 -0 -0 -1 -0 -0 -0 -0 -0 -0 -1 -0 -0 -0 -0 -0 -13 -0 -0 -2 -0 -0 -0 -0 -0 -0 -0 -0 -0 -0 -0 -0 -0 -0 -0 -0 -0 -0 -0 -0 -0 -0 -0 -0 -0 -0 -0 -0 -0
-0 -0 -11 -10 -10 -0 -0 -1 -0 -0 -0 -0 -0 -0 -0 -0 -0 -0 -0 -3 -2 -9 -0 -0 -0 -0 -2 -0 -11 -0 -7 -0 -12 -0 -0 -0 -0 -0 -0 -0 -0 -0 -0 -0 -0 -0 -0 -0 -0 -0 -0 -0 -0 -0
-1 -0 -0 -0 -0 -0 -1 -0 -0 -0 -0 -0 -0 -0 -0 -0 -0 -1 -9 -2 -0 -0 -0 -3 -1 -28 -0 -0 -20 -38 -40 -1 -0 -0 -0 -0 -0 -0 -0 -0 -0 -0 -0 -0 -0 -0 -0 -0 -0 -0 -0 -0 -0 -0
-0 -1 -0 -2 -1 -0 -1 -2 -0 -0 -0 -0 -0 -0 -0 -0 -0 -0 -0 -0 -0 -0 -0 -3 -8 -14 -0 -0 -5 -0 -0 -0 -0 -0 -0 -0 -0 -0 -0 -0 -0 -0 -0 -0 -0 -0 -0 -0 -0 -0 -0 -0 -0 -0
-0 -0 -1 -2 -0 -0 -0 -0 -0 -0 -0 -0 -0 -0 -0 -0 -0 -0 -0 -0 -0 -0 -0 -15 -12 -7 -0 -8 -48 -49 -0 -0 -0 -0 -0 -0 -0 -0 -0 -0 -0 -0 -0 -0 -0 -0 -0 -0 -0 -0 -0 -0 -0 -0
-0 -0 -0 -1 -1 -0 -0 -10 -0 -0 -0 -0 -0 -0 -0 -0 -0 -0 -0 -0 -0 -0 -0 -3 -0 -4 -13 -22 -25 -19 -0 -0 -0 -0 -0 -0 -0 -0 -0 -0 -0 -0 -0 -0 -0 -0 -0 -0 -0 -0 -0 -0 -0 -0
-1 -0 -0 -0 -0 -0 -1 -0 -0 -0 -0 -0 -0 -0 -0 -0 -0 -0 -0 -0 -0 -0 -0 -0 -0 -0 -0 -0 -0 -0 -0 -0 -0 -0 -0 -0 -0 -0 -0 -0 -0 -0 -0 -0 -0 -0 -0 -0 -0 -0 -0 -0 -0 -0
-0 -0 -0 -0 -0 -0 -0 -0 -0 -0 -0 -0 -0 -0 -0 -0 -0 -0 -0 -0 -0 -0 -0 -0 -0 -0 -0 -0 -0 -0 -0 -0 -0 -0 -0 -0 -0 -0 -0 -0 -0 -0 -0 -0 -0 -0 -0 -0 -0 -0 -0 -0 -0 -0
-0 -0 -0 -0 -0 -0 -0 -0 -0 -0 -0 -0 -0 -0 -0 -0 -0 -0 -0 -0 -0 -0 -0 -0 -0 -0 -0 -0 -0 -0 -0 -0 -0 -0 -0 -0 -0 -0 -0 -0 -0 -0 -0 -0 -0 -0 -0 -0 -0 -0 -0 -0 -0 -0
-0 -0 -0 -0 -0 -0 -0 -0 -0 -0 -0 -0 -0 -0 -0 -0 -0 -0 -0 -0 -0 -0 -0 -0 -0 -0 -0 -0 -0 -0 -0 -0 -0 -0 -0 -0 -0 -0 -0 -0 -0 -0 -0 -0 -0 -0 -0 -0 -0 -0 -0 -0 -0 -0
-0 -0 -0 -0 -0 -0 -0 -0 -0 -0 -0 -0 -0 -0 -0 -0 -0 -0 -0 -0 -0 -0 -0 -0 -0 -0 -0 -0 -0 -0 -0 -0 -0 -0 -0 -0 -0 -0 -0 -0 -0 -0 -0 -0 -0 -0 -0 -0 -0 -0 -0 -0 -0 -0
-0 -0 -0 -0 -0 -0 -0 -0 -0 -0 -0 -0 -0 -0 -0 -0 -0 -0 -0 -0 -0 -0 -0 -0 -0 -0 -0 -0 -0 -0 -0 -0 -0 -0 -0 -0 -0 -0 -0 -0 -0 -0 -0 -0 -0 -0 -0 -0 -0 -0 -0 -0 -0 -0
-0 -0 -0 -0 -0 -0 -0 -0 -0 -0 -0 -0 -0 -0 -0 -0 -0 -0 -0 -0 -0 -0 -0 -0 -0 -0 -0 -0 -0 -0 -0 -0 -0 -0 -0 -0 -0 -0 -0 -0 -0 -0 -0 -0 -0 -0 -0 -0 -0 -0 -0 -0 -0 -0
-0 -0 -0 -0 -0 -0 -0 -0 -0 -0 -0 -0 -0 -0 -0 -0 -0 -0 -0 -0 -0 -0 -0 -0 -0 -0 -0 -0 -0 -0 -0 -0 -0 -0 -0 -0 -0 -0 -0 -0 -0 -0 -0 -0 -0 -0 -0 -0 -0 -0 -0 -0 -0 -0
-0 -0 -0 -0 -0 -0 -0 -0 -0 -0 -0 -0 -0 -0 -0 -0 -0 -0 -0 -0 -0 -0 -0 -0 -0 -0 -0 -0 -0 -0 -0 -0 -0 -0 -0 -0 -0 -0 -0 -0 -0 -0 -0 -0 -0 -0 -0 -0 -0 -0 -0 -0 -0 -0
-0 -0 -0 -0 -0 -0 -0 -0 -0 -0 -0 -0 -0 -0 -0 -0 -0 -0 -0 -0 -0 -0 -0 -0 -0 -0 -0 -0 -0 -0 -0 -0 -0 -0 -0 -0 -0 -0 -0 -0 -0 -0 -0 -0 -0 -0 -0 -0 -0 -0 -0 -0 -0 -0
-0 -0 -0 -0 -0 -0 -0 -0 -0 -0 -0 -0 -0 -0 -0 -0 -0 -0 -0 -0 -0 -0 -0 -0 -0 -0 -0 -0 -0 -0 -0 -0 -0 -0 -0 -0 -0 -0 -0 -0 -0 -0 -0 -0 -0 -0 -0 -0 -0 -0 -0 -0 -0 -0
-0 -0 -0 -0 -0 -0 -0 -0 -0 -0 -0 -0 -0 -0 -0 -0 -0 -0 -0 -0 -0 -0 -0 -0 -0 -0 -0 -0 -0 -0 -0 -0 -0 -0 -0 -0 -0 -0 -0 -0 -0 -0 -0 -0 -0 -0 -0 -0 -0 -0 -0 -0 -0 -0
-0 -0 -0 -0 -0 -0 -0 -0 -0 -0 -0 -0 -0 -0 -0 -0 -0 -0 -0 -0 -0 -0 -0 -0 -0 -0 -0 -0 -0 -0 -0 -0 -0 -0 -0 -0 -0 -0 -0 -0 -0 -0 -0 -0 -0 -0 -0 -0 -0 -0 -0 -0 -0 -0
-0 -0 -0 -0 -0 -0 -0 -0 -0 -0 -0 -0 -0 -0 -0 -0 -0 -0 -0 -0 -0 -0 -0 -0 -0 -0 -0 -0 -0 -0 -0 -0 -0 -0 -0 -0 -0 -0 -0 -0 -0 -0 -0 -0 -0 -0 -0 -0 -0 -0 -0 -0 -0 -0
-0 -0 -0 -0 -0 -0 -0 -0 -0 -0 -0 -0 -0 -0 -0 -0 -0 -0 -0 -0 -0 -0 -0 -0 -0 -0 -0 -0 -0 -0 -0 -0 -0 -0 -0 -0 -0 -0 -0 -0 -0 -0 -0 -0 -0 -0 -0 -0 -0 -0 -0 -0 -0 -0
-0 -0 -0 -0 -0 -0 -0 -0 -0 -0 -0 -0 -0 -0 -0 -0 -0 -0 -0 -0 -0 -0 -0 -0 -0 -0 -0 -0 -0 -0 -0 -0 -0 -0 -0 -0 -0 -0 -0 -0 -0 -0 -0 -0 -0 -0 -0 -0 -0 -0 -0 -0 -0 -0
-0 -0 -0 -0 -0 -0 -0 -0 -0 -0 -0 -0 -0 -0 -0 -0 -0 -0 -0 -0 -0 -0 -0 -0 -0 -0 -0 -0 -0 -0 -0 -0 -0 -0 -0 -0 -0 -0 -0 -0 -0 -0 -0 -0 -0 -0 -0 -0 -0 -0 -0 -0 -0 -0
Wind_Speed
43 43 42 43 44 46 46 43 45 40 37 36 33 30 29 30 31 32 33 31 30 32 31 30 29 30 31 32 34 27 24 29 30 34 34 32 32 28 30 28 24 22 21 27 27 32 42 18 18 24 22 19 19 21
42 41 38 35 39 42 44 39 44 40 36 34 30 28 27 26 29 31 36 29 23 27 28 25 29 27 27 26 27 26 31 27 27 29 29 27 27 23 26 31 27 31 24 23 19 23 18 9 18 17 18 19 19 20
38 36 32 31 35 34 38 38 40 35 32 30 28 26 24 23 25 29 32 27 31 31 32 31 30 27 26 26 22 27 30 24 27 24 25 28 32 26 31 34 29 31 27 31 25 26 27 24 24 25 21 22 20 17
31 28 30 30 31 32 35 37 36 30 29 28 25 24 22 22 23 25 32 25 27 30 36 34 25 30 27 25 27 25 24 22 22 23 26 29 33 28 32 32 30 26 20 26 34 35 32 31 27 25 23 19 20 22
26 26 28 28 29 29 33 35 29 26 25 24 23 22 20 20 21 22 25 27 26 30 33 34 29 29 24 24 29 28 24 24 25 26 27 31 28 26 29 30 35 27 26 26 30 26 26 28 26 23 20 20 22 24
23 25 26 28 29 28 30 28 23 23 23 23 21 20 19 18 18 21 30 27 26 25 34 38 27 29 30 28 28 31 26 26 27 27 29 30 26 26 31 40 33 28 28 28 31 27 23 21 19 19 18 18 18 20
26 28 30 32 32 30 29 20 15 17 19 20 19 18 16 17 20 24 26 21 20 21 30 36 35 27 24 24 27 26 24 26 27 29 30 29 27 25 34 45 29 23 24 27 26 24 26 23 23 20 18 18 19 20
30 29 31 33 32 34 30 11 9 7 14 12 12 13 14 15 19 23 21 19 21 23 27 34 34 31 26 28 30 25 28 27 29 29 28 31 28 29 37 34 33 29 26 26 25 25 26 23 24 25 23 23 23 23
23 27 27 29 31 33 24 10 11 12 11 9 5 8 16 21 24 23 21 23 21 27 32 34 37 39 25 29 28 27 26 33 26 33 31 25 32 38 37 32 29 25 25 26 23 24 24 25 24 25 25 25 27 28
10 15 24 25 30 19 14 13 13 12 8 4 8 16 22 22 19 20 21 25 28 31 32 34 31 35 27 29 30 28 28 33 36 34 23 33 39 35 29 25 24 24 26 25 28 30 25 26 27 28 29 28 27 29
13 7 21 13 10 11 17 16 14 11 2 8 13 16 14 16 18 22 27 30 30 33 34 37 33 34 28 33 31 28 30 29 36 33 32 34 41 34 25 23 23 24 24 23 22 21 21 21 23 26 27 27 27 27
14 13 3 5 10 12 14 13 7 7 9 7 6 9 13 17 22 26 30 28 31 38 29 34 36 30 29 27 30 29 33 30 37 25 33 41 40 29 26 26 24 24 23 22 22 22 22 23 23 23 25 26 27 27
13 11 3 6 11 14 13 8 4 8 2 8 11 14 16 18 25 29 32 30 34 25 28 32 33 27 24 24 27 28 32 34 22 33 40 41 32 28 26 25 25 24 23 23 23 23 22 22 22 23 24 25 26 26
14 11 9 4 3 5 6 7 5 4 9 11 12 16 18 20 23 23 26 26 28 28 25 25 29 31 30 31 29 32 27 23 32 38 42 37 30 26 23 21 21 23 23 23 23 22 22 21 21 21 22 23 23 24
17 14 11 8 5 4 2 1 5 10 12 12 12 18 19 19 20 22 23 23 20 25 25 24 27 27 30 32 32 30 31 37 42 43 38 31 24 23 22 21 21 20 20 20 20 20 19 17 17 19 19 20 19 20
20 19 17 14 11 9 5 6 10 13 13 14 17 18 20 21 23 22 23 24 21 20 22 24 25 28 29 32 31 39 42 36 27 24 24 22 22 22 22 20 19 18 17 17 18 18 17 17 16 17 18 18 18 18
15 18 19 15 14 10 8 11 14 14 14 16 24 24 22 25 27 26 24 24 22 24 26 22 29 28 25 29 29 31 34 31 23 15 12 13 14 14 14 14 16 16 17 17 16 16 16 16 17 17 17 17 16 16
10 10 11 12 12 14 17 17 15 16 20 19 28 26 24 28 27 26 25 24 25 24 23 25 23 29 29 32 34 28 21 16 18 19 19 17 16 14 13 13 15 14 14 15 15 15 15 16 16 15 15 14 13 14
11 6 8 10 14 16 18 20 20 21 21 21 22 22 25 26 25 25 25 24 23 23 23 21 23 25 26 24 25 20 18 22 20 16 14 15 15 13 13 12 12 12 12 13 13 13 13 13 13 14 13 12 12 13
14 9 15 22 19 14 15 18 18 20 26 24 22 22 23 25 25 26 25 24 23 21 21 22 22 20 19 19 20 20 15 11 10 13 13 13 13 12 12 11 11 10 10 10 11 11 11 11 13 13 13 12 13 14
13 15 14 17 22 19 17 18 18 20 21 24 24 22 24 23 24 24 24 22 21 21 19 17 14 13 12 11 10 7 6 8 12 15 13 12 12 11 11 11 11 11 10 10 10 11 11 12 13 13 12 13 13 14
6 14 12 12 11 15 14 18 18 19 20 20 19 23 24 24 22 21 20 20 21 18 16 15 12 8 7 7 6 6 5 5 6 5 5 2 6 7 7 8 8 8 8 9 10 11 12 13 13 13 12 13 14 15
11 12 11 11 9 14 17 18 17 17 16 16 17 18 19 19 19 18 18 17 18 15 15 12 10 10 6 7 6 5 7 6 6 5 4 5 5 5 5 7 7 7 8 11 12 13 14 14 14 13 13 14 14 16
14 9 7 9 7 13 19 20 21 19 16 16 16 16 17 16 18 17 18 18 16 14 11 8 5 6 8 9 9 9 10 7 5 5 6 5 6 8 9 9 10 11 12 11 12 13 14 15 14 14 14 15 16 17
5 5 7 4 7 9 15 16 19 19 18 19 18 18 16 17 17 18 18 18 16 15 13 10 12 14 14 13 12 12 13 10 9 9 12 11 8 9 11 12 13 14 14 13 14 14 15 15 15 15 16 16 16 16
7 6 5 5 5 6 10 14 15 18 18 19 20 20 19 19 19 22 20 18 17 17 16 14 14 16 18 17 13 13 13 13 12 14 14 12 12 13 12 13 14 15 14 14 14 15 16 17 17 17 17 16 16 16
9 9 8 13 10 9 11 15 14 16 19 20 19 19 18 20 19 22 22 21 21 21 19 17 15 17 18 16 15 15 12 13 16 16 13 12 15 15 14 14 14 15 11 13 14 14 15 16 17 17 17 17 16 15
9 8 20 17 14 20 13 18 17 19 23 19 12 20 22 25 27 22 21 20 18 16 15 14 15 16 16 14 13 11 13 12 12 11 12 14 15 15 14 13 10 10 12 13 14 15 16 15 15 14 14 13 13 12
20 20 23 24 22 21 21 22 22 21 21 22 23 24 24 23 22 20 18 15 11 11 11 11 13 13 12 11 12 14 13 14 16 18 19 19 19 19 17 15 15 15 15 14 14 15 14 13 11 10 10 9 9 8
19 19 21 22 22 22 20 20 20 20 20 20 20 19 20 20 20 21 22 21 21 19 14 6 3 3 2 2 4 12 14 14 18 18 16 16 17 17 11 11 12 12 11 10 10 10 8 8 7 7 6 5 5 4
17 19 19 20 20 20 19 19 18 18 18 19 19 20 21 20 21 22 23 23 23 23 22 22 23 23 22 21 20 20 25 29 30 27 22 22 21 17 3 8 8 19 20 19 16 17 17 26 27 27 27 27 27 27
16 18 18 18 18 17 17 18 17 17 17 17 18 19 19 19 19 19 21 24 26 26 25 25 24 24 25 24 25 25 25 26 30 31 30 28 28 28 29 29 29 29 29 29 29 29 28 28 29 28 29 29 29 30
16 17 17 17 17 17 17 17 16 15 15 15 15 16 17 18 19 19 19 21 24 25 26 25 24 23 26 26 27 24 22 25 29 31 30 28 28 29 29 30 30 31 32 31 30 29 29 31 31 32 33 33 34 34
Wind_Direction
282 276 271 264 259 255 251 249 249 244 246 244 245 249 253 253 248 249 253 251 252 253 259 252 251 249 246 242 245 246 244 249 247 249 253 259 261 259 264 264 263 259 268 272 277 279 281 295 302 290 306 319 316 315
276 271 267 267 263 254 248 250 249 241 242 240 240 246 252 254 250 249 249 253 255 255 260 263 258 255 250 241 246 241 253 246 247 248 255 259 262 262 258 262 262 262 265 275 265 283 301 304 300 308 317 315 315 313
260 257 266 267 258 258 248 246 243 234 236 233 235 243 248 253 253 248 249 255 247 252 259 256 254 255 254 248 244 251 254 254 251 257 257 261 261 258 258 263 267 268 267 274 276 278 284 290 287 292 302 303 310 309
246 261 254 260 261 258 250 243 234 229 232 231 233 237 245 253 258 254 246 251 250 250 250 255 263 256 258 248 244 253 258 254 258 255 257 259 260 261 264 267 263 268 263 270 277 281 289 287 285 286 284 292 297 298
261 262 259 266 266 258 244 238 224 228 228 223 229 235 243 253 260 258 254 249 255 251 251 253 259 257 258 250 250 252 252 252 252 254 257 257 263 265 268 270 265 262 267 266 277 287 288 292 291 289 289 287 291 291
276 269 270 265 256 248 235 225 221 226 222 220 225 231 243 253 260 260 250 253 255 258 252 252 262 258 253 253 251 248 248 255 254 257 258 262 266 263 267 266 270 266 269 272 278 282 286 294 302 303 301 300 299 293
276 270 268 254 243 233 227 223 221 226 217 211 220 233 247 255 257 256 252 257 256 254 253 251 252 256 252 249 249 254 253 257 261 259 259 261 263 263 267 265 276 273 273 272 275 280 282 285 287 296 299 301 302 302
273 271 259 243 233 221 217 199 201 203 173 181 209 228 252 264 267 261 267 266 257 250 251 252 248 247 246 248 247 254 253 257 263 263 261 260 262 263 266 269 267 273 276 275 276 278 280 282 285 287 292 294 296 298
273 267 243 235 228 213 217 184 149 158 172 175 190 253 267 267 260 264 271 268 259 250 248 248 241 244 245 249 250 255 257 256 264 261 260 260 258 258 262 267 267 267 270 276 275 282 282 281 282 285 288 290 290 293
243 237 197 214 202 195 164 151 146 146 156 166 271 270 264 268 277 275 267 257 252 248 249 250 245 246 244 246 248 250 257 256 258 259 262 260 261 264 268 270 272 272 274 279 276 275 278 279 283 285 285 288 289 291
331 303 181 193 168 148 126 128 126 122 182 284 279 279 290 294 276 263 253 248 247 249 246 244 246 243 249 244 247 252 257 257 259 258 255 261 262 264 264 266 273 277 278 279 280 286 288 286 286 287 288 290 291 291
336 338 257 175 123 123 122 126 140 253 274 293 321 321 306 283 265 256 250 251 251 245 247 241 242 246 248 252 253 253 256 258 260 255 256 261 263 268 265 267 272 276 276 279 284 284 286 287 290 292 291 292 293 294
325 336 256 97 113 117 114 113 84 88 32 314 317 300 292 278 260 253 249 251 246 252 247 242 238 241 247 248 256 253 254 256 260 256 259 262 267 268 268 267 270 275 278 279 282 287 289 289 292 293 293 295 295 295
304 317 323 262 167 130 116 107 99 304 295 309 302 283 281 272 265 262 260 266 260 253 250 242 241 243 246 247 256 256 262 256 257 256 258 263 264 266 269 272 271 274 278 280 282 285 287 289 291 295 296 298 298 299
280 271 258 265 286 276 120 78 291 294 302 299 304 280 281 288 281 274 275 274 276 258 249 247 249 250 248 251 252 255 262 256 255 259 266 267 266 267 269 271 273 278 281 282 284 286 289 291 293 297 302 303 306 306
270 264 263 263 263 263 268 286 285 287 295 292 287 278 285 284 283 275 274 272 274 269 255 251 250 252 252 249 253 247 250 259 268 273 270 266 267 269 271 273 275 277 280 283 286 287 289 290 293 298 303 305 307 308
275 268 264 265 265 270 277 285 285 290 293 293 275 273 285 287 279 274 271 270 270 258 251 252 249 253 256 255 257 255 254 257 263 274 277 273 268 269 274 277 279 281 281 282 287 290 293 295 297 299 301 304 307 311
306 287 272 267 272 274 273 279 284 288 282 288 272 281 289 283 274 267 267 268 264 256 257 252 258 254 257 254 257 262 268 267 264 261 262 265 272 277 279 281 283 285 286 288 289 291 294 296 297 299 303 306 310 314
71 12 310 293 282 277 275 277 281 284 283 288 287 289 286 274 267 263 262 262 262 259 254 257 260 258 258 265 263 267 258 256 259 265 267 270 271 274 278 282 285 288 290 293 294 296 298 302 302 304 307 311 313 315
52 338 261 214 195 283 285 285 287 281 270 272 278 274 267 266 261 256 254 259 257 256 259 258 261 269 271 270 269 262 259 250 249 252 262 268 269 269 275 279 282 288 293 300 302 302 301 303 306 307 308 310 311 313
313 276 288 244 227 237 259 256 264 266 264 258 261 263 261 258 254 251 253 260 250 252 257 263 266 266 276 284 286 277 258 246 256 266 257 258 265 270 275 280 285 288 290 292 294 297 301 302 309 310 310 310 313 315
356 299 337 277 283 253 277 250 253 250 262 265 261 252 249 248 250 250 256 244 244 254 266 264 263 273 278 280 285 287 275 281 297 282 270 249 268 270 273 277 281 286 293 295 294 297 302 308 310 314 317 317 318 318
319 319 358 312 324 286 275 257 258 268 273 267 259 253 250 247 249 248 249 250 253 266 265 271 267 271 280 283 288 290 284 278 288 285 275 278 280 289 293 296 293 291 295 301 305 305 305 312 311 313 315 318 320 322
303 348 53 82 31 289 260 257 252 262 275 265 260 263 256 259 252 255 254 253 259 260 267 272 270 278 280 276 274 274 280 286 293 294 288 280 281 286 289 292 294 297 299 303 306 309 308 307 310 313 313 314 316 318
64 25 346 62 356 314 290 284 271 268 274 263 263 264 265 261 260 260 263 263 262 262 264 266 269 275 273 274 274 275 277 274 273 274 279 281 285 291 292 293 295 295 298 300 303 307 310 312 313 312 313 314 317 319
131 344 38 71 26 335 305 297 289 280 281 277 270 264 267 268 266 264 268 271 270 267 265 263 265 270 273 276 271 270 272 277 276 277 278 277 279 284 283 283 286 291 302 303 304 305 306 308 310 311 313 313 315 318
123 119 321 302 328 338 324 300 300 292 282 276 276 275 279 277 277 273 273 275 277 279 277 271 270 275 276 277 276 278 275 278 281 281 283 282 287 287 284 284 285 292 301 304 307 309 309 309 310 310 310 310 310 311
76 99 162 148 159 254 152 192 166 173 227 269 298 275 273 270 271 284 285 285 288 291 290 285 281 282 284 279 276 270 272 276 282 287 289 289 289 291 293 296 303 302 304 305 306 309 311 311 311 312 313 315 316 318
171 184 182 180 187 188 189 189 187 192 195 188 198 208 224 242 258 272 286 295 303 301 300 296 292 291 292 286 281 278 265 261 263 267 269 272 275 276 280 286 291 295 298 301 306 309 312 315 316 317 321 327 334 343
164 176 171 172 175 176 179 180 181 185 187 190 196 201 201 202 205 201 189 171 168 165 150 110 53 1 334 302 284 283 276 272 273 274 272 273 276 281 270 279 289 296 302 307 312 318 327 331 337 340 351 2 10 359
175 175 170 173 176 183 185 190 191 193 196 197 199 202 208 217 219 207 195 191 188 184 178 181 183 184 178 176 176 177 188 196 197 233 261 262 262 269 269 153 286 254 227 219 188 175 176 183 178 178 179 178 177 173
179 172 170 174 178 189 191 189 193 194 197 197 199 203 206 204 202 200 204 190 190 191 192 188 187 189 187 188 185 192 196 196 188 190 194 202 200 196 190 188 188 186 182 179 176 174 175 171 170 172 172 171 169 165
158 160 161 162 165 167 174 174 172 175 176 177 179 183 183 184 181 189 195 188 180 176 174 174 175 177 170 170 169 173 178 173 169 171 175 177 175 173 174 174 171 170 168 169 171 172 170 167 165 162 159 157 157 156